EW2785 Weather Reports


time (UTC)temp
F
wind
direction
speed
knots
gust
knots
rain 1hr
in
rain 24hr
in
rain mn
in
humidity
%
barometer
mb
20260906193019 67 34 2.6 9.6 0.00 0.01 0.00 65 1015.6
20260906191517 67 176 2.6 7.8 0.00 0.01 0.00 66 1015.5
20260906190014 67 208 0.9 6.1 0.00 0.01 0.00 69 1015.6
20260906184511 66 310 1.7 12.2 0.00 0.01 0.00 69 1015.7
20260906183012 65 240 0.9 9.6 0.00 0.01 0.00 71 1015.7
20260906181518 65 275 1.7 7.8 0.00 0.01 0.00 73 1015.8
20260906180005 65 263 3.5 9.6 0.00 0.01 0.00 76 1015.8
20260906174504 64 234 0.9 7.8 0.00 0.01 0.00 76 1016.2
20260906173005 64 173 0.9 8.7 0.00 0.01 0.00 78 1016.2
20260906171603 63 309 0.9 10.4 0.00 0.01 0.00 79 1016.3
20260906170100 63 271 0.0 7.8 0.00 0.01 0.00 79 1016.3
20260906164557 63 261 1.7 8.7 0.00 0.01 0.00 80 1016.5
20260906163056 62 195 0.9 7.0 0.00 0.01 0.00 81 1016.5
20260906161556 62 327 1.7 7.8 0.00 0.01 0.00 83 1016.7
20260906160053 61 274 0.9 5.2 0.00 0.01 0.00 83 1016.7
20260906154553 61 206 0.9 6.1 0.00 0.01 0.00 85 1016.9
20260906153106 60 326 2.6 9.6 0.00 0.01 0.00 85 1017.0
20260906151551 60 263 0.0 3.5 0.00 0.01 0.00 87 1017.1
20260906150048 60 355 1.7 9.6 0.00 0.01 0.00 87 1017.0
20260906144557 59 5 1.7 7.0 0.00 0.01 0.00 88 1016.9
20260906143047 59 338 0.9 7.0 0.00 0.01 0.00 89 1016.8
20260906141545 59 323 1.7 5.2 0.00 0.01 0.00 90 1016.8
20260906140049 59 309 0.9 7.0 0.00 0.01 0.00 90 1016.8
20260906134543 58 26 0.0 7.0 0.00 0.01 0.00 91 1016.6
20260906133050 58 297 0.0 8.7 0.00 0.01 0.00 91 1016.7
20260906131540 58 189 0.0 4.3 0.00 0.01 0.00 92 1016.4
20260906130040 58 317 0.0 5.2 0.00 0.01 0.00 93 1016.4
20260906124538 57 311 0.9 6.1 0.00 0.01 0.00 93 1016.5
20260906123043 57 317 0.9 4.3 0.00 0.01 0.00 93 1016.3
20260906121544 57 292 0.9 7.0 0.00 0.01 0.00 93 1016.1
20260906120034 57 315 0.9 6.1 0.00 0.01 0.00 93 1016.0
20260906114536 56 185 0.9 5.2 0.00 0.01 0.00 93 1015.9
20260906113030 56 15 0.0 3.5 0.00 0.01 0.00 93 1015.8
20260906111529 56 342 0.9 5.2 0.00 0.01 0.00 93 1015.6
20260906110027 56 323 0.0 3.5 0.00 0.01 0.00 93 1015.4
20260906104525 57 313 0.9 5.2 0.00 0.01 0.00 93 1015.1
20260906103023 57 360 0.9 4.3 0.00 0.01 0.00 93 1015.1
20260906101522 57 302 0.9 4.3 0.00 0.01 0.00 93 1015.0
20260906100019 57 334 0.0 5.2 0.00 0.01 0.00 93 1014.9
20260906094518 58 280 1.7 3.5 0.00 0.01 0.00 93 1014.9
20260906093032 58 297 0.0 3.5 0.00 0.01 0.00 93 1014.6
20260906091520 58 325 0.0 4.3 0.00 0.01 0.00 92 1014.5
20260906090013 58 325 0.0 0.9 0.00 0.01 0.00 92 1014.3
20260906084511 58 325 0.0 2.6 0.00 0.01 0.00 92 1014.3
20260906083011 58 302 0.0 0.9 0.00 0.01 0.00 92 1014.3
20260906081511 58 360 0.0 1.7 0.00 0.01 0.00 92 1014.1
20260906080009 58 9 0.0 1.7 0.00 0.01 0.00 92 1014.1
20260906074508 58 148 0.0 0.9 0.00 0.01 0.00 92 1014.0
20260906073015 58 148 0.0 0.9 0.00 0.01 0.00 92 1013.9
20260906071506 58 148 0.0 0.0 0.00 0.01 0.00 92 1013.7
20260906070005 58 148 0.0 0.0 0.00 0.01 0.00 91 1013.7
20260906064504 58 148 0.0 0.0 0.00 0.01 0.00 91 1013.6
20260906063006 58 148 0.0 0.0 0.00 0.01 0.00 91 1013.8
20260906061503 59 148 0.0 0.9 0.00 0.01 0.00 91 1013.9
20260906060002 59 148 0.0 0.0 0.00 0.01 0.00 91 1013.7
20260906054501 59 148 0.0 0.0 0.00 0.01 0.00 91 1013.9
20260906053100 59 148 0.0 0.0 0.00 0.01 0.00 90 1013.9
20260906051559 59 148 0.0 0.0 0.00 0.01 0.00 90 1013.8
20260906050111 59 148 0.0 0.0 0.01 0.01 0.00 90 1013.9
20260906044556 60 148 0.0 2.6 0.01 0.01 0.00 90 1013.9
20260906043107 60 147 0.0 1.7 0.01 0.01 0.00 89 1014.0
20260906041552 61 147 0.0 0.9 0.01 0.01 0.00 88 1014.0
20260906040109 61 100 0.0 1.7 0.00 0.00 0.00 87 1014.0
20260906034548 62 115 0.0 0.9 0.00 0.00 0.00 85 1013.9
20260906033050 62 351 0.0 2.6 0.00 0.00 0.00 84 1013.5
20260906031545 62 20 0.0 0.0 0.00 0.00 0.00 82 1013.5
20260906030043 62 20 0.0 1.7 0.00 0.00 0.00 82 1013.4
20260906024542 62 34 0.0 1.7 0.00 0.00 0.00 82 1013.2
20260906023058 62 198 0.0 0.9 0.00 0.00 0.00 83 1013.2
20260906021542 62 198 0.0 2.6 0.00 0.00 0.00 84 1013.1
20260906020041 63 331 0.0 0.9 0.00 0.00 0.00 85 1013.1
20260906014554 63 331 0.0 0.0 0.00 0.00 0.00 86 1013.3
20260906013041 63 331 0.0 0.0 0.00 0.00 0.00 86 1013.2
20260906011550 64 334 0.0 0.9 0.00 0.00 0.00 87 1013.1
20260906010038 64 334 0.0 0.0 0.00 0.00 0.00 87 1013.0
20260906004539 64 334 0.0 0.0 0.00 0.00 0.00 87 1012.9
20260906003035 64 334 0.0 0.9 0.00 0.00 0.00 87 1012.7
20260906001534 64 333 0.0 3.5 0.00 0.00 0.00 86 1012.6
20260906000032 65 307 0.0 2.6 0.00 0.00 0.00 86 1012.5
20260905234536 65 309 0.0 3.5 0.00 0.00 0.00 86 1012.5
20260905233030 65 21 0.0 2.6 0.00 0.00 0.00 85 1012.1
20260905231529 66 323 0.9 3.5 0.00 0.00 0.00 84 1012.1
20260905230028 66 13 0.9 4.3 0.00 0.00 0.00 83 1012.0
20260905224534 66 331 0.9 3.5 0.00 0.00 0.00 83 1012.1
20260905223032 66 294 0.0 3.5 0.00 0.00 0.00 82 1012.0
20260905221524 67 360 0.0 4.3 0.00 0.00 0.00 81 1011.8
20260905220024 67 294 0.9 4.3 0.00 0.00 0.00 81 1011.7
20260905214523 67 313 0.0 3.5 0.00 0.00 0.00 81 1011.7
20260905213022 67 324 1.7 5.2 0.00 0.00 0.00 82 1011.7
20260905211523 67 56 0.0 2.6 0.00 0.00 0.00 81 1011.5
20260905210020 67 294 0.9 6.1 0.00 0.00 0.00 80 1011.5
20260905204519 67 242 0.0 4.3 0.00 0.00 0.00 80 1011.3
20260905203020 67 329 0.9 5.2 0.00 0.00 0.00 81 1011.2
20260905201521 68 323 1.7 7.0 0.00 0.00 0.00 81 1011.2
20260905200018 68 319 0.9 7.8 0.00 0.00 0.00 80 1011.1
20260905194518 68 355 1.7 8.7 0.00 0.00 0.00 80 1011.2